This is the latest recevied weather packets stored in our database for station/object N4ASP-13. If no packets are shown the sender has not sent any weather packets the latest 1 day(s).
| Time | Temp. | Humidity | Pressure | Rain* | Wind** | Luminosity | Snow |
|---|---|---|---|---|---|---|---|
| 1778084844 | 16.11° C | 87% | 1014.6 hPa | 0 mm | - | 190 W/m² | - |
| 1778084665 | 16.11° C | 87% | 1014.8 hPa | 0 mm | - | 186 W/m² | - |
| 1778084365 | 16.67° C | 87% | 1015 hPa | 0 mm | - | 174 W/m² | - |
| 1778084301 | 16.67° C | 87% | 1015 hPa | 0 mm | - | 179 W/m² | - |
| 1778084179 | 16.11° C | 87% | 1014.8 hPa | 0 mm | - | 192 W/m² | - |
| 1778083933 | 16.11° C | 87% | 1014.8 hPa | 0 mm | - | 221 W/m² | - |
| 1778083752 | 16.11° C | 87% | 1014.8 hPa | 0 mm | - | 281 W/m² | - |
| 1778083513 | 16.11° C | 87% | 1014.6 hPa | 0 mm | - | 274 W/m² | - |
| 1778083390 | 16.11° C | 87% | 1014.6 hPa | 0 mm | - | 241 W/m² | - |
| 1778083151 | 16.11° C | 87% | 1014.7 hPa | 0 mm | - | 169 W/m² | - |
| 1778082969 | 15.56° C | 87% | 1014.5 hPa | 0 mm | - | 141 W/m² | - |
| 1778082729 | 15.56° C | 88% | 1014.4 hPa | 0 mm | - | 199 W/m² | - |
| 1778082609 | 15.56° C | 88% | 1014.1 hPa | 0 mm | - | 250 W/m² | - |
| 1778082544 | 15.56° C | 88% | 1014.2 hPa | 0 mm | - | 251 W/m² | - |
| 1778082484 | 15.56° C | 88% | 1014.2 hPa | 0 mm | - | 244 W/m² | - |
| 1778082365 | 15.56° C | 88% | 1014.3 hPa | 0 mm | - | 214 W/m² | - |
| 1778082184 | 15.56° C | 88% | 1014.5 hPa | 0 mm | - | 214 W/m² | - |
| 1778082124 | 15.56° C | 88% | 1014.4 hPa | 0 mm | - | 229 W/m² | - |
| 1778082064 | 15.56° C | 87% | 1014.4 hPa | 0 mm | - | 244 W/m² | - |
| 1778082006 | 15.56° C | 87% | 1014.5 hPa | 0 mm | - | 262 W/m² | - |
| 1778081584 | 15.56° C | 87% | 1013.9 hPa | 0 mm | - | 151 W/m² | - |
| 1778081344 | 16.11° C | 87% | 1014 hPa | 0 mm | - | 142 W/m² | - |
| 1778080984 | 16.11° C | 87% | 1014.2 hPa | 0 mm | - | 167 W/m² | - |
| 1778080924 | 16.11° C | 87% | 1014.3 hPa | 0 mm | - | 183 W/m² | - |
| 1778080560 | 16.11° C | 87% | 1014.3 hPa | 0 mm | - | 199 W/m² | - |
* Rain latest hour (hover to see other rain measurements)
** Current wind speed in m/s (hover to see current wind gust speed)